Date_Time,Julian_Date,Latitude,Longitude,Instrument_Depth,U,V,Speed,Direction
(yyyy-mm-dd hh:mn:ss UTC),(JD),(+ deg. North),(+ deg. East),(m),(cm/s),(cm/s),(cm/s),(deg True)
1982-06-14 18:00:00 UTC,2445135.250000,28.7317,-95.2428,0201,4.45,12.22,13.0000,20.0000
1982-06-14 18:30:00 UTC,2445135.270833,28.7317,-95.2428,0201,4.45,12.22,13.0000,20.0000
1982-06-14 19:00:00 UTC,2445135.291667,28.7317,-95.2428,0201,4.02,12.36,13.0000,18.0000
1982-06-14 19:30:00 UTC,2445135.312500,28.7317,-95.2428,0201,3.31,11.54,12.0000,16.0000
1982-06-14 20:00:00 UTC,2445135.333333,28.7317,-95.2428,0201,3.51,11.48,12.0000,17.0000
1982-06-14 20:30:00 UTC,2445135.354167,28.7317,-95.2428,0201,3.71,11.41,12.0000,18.0000
1982-06-14 21:00:00 UTC,2445135.375000,28.7317,-95.2428,0201,3.91,11.35,12.0000,19.0000
1982-06-14 21:30:00 UTC,2445135.395833,28.7317,-95.2428,0201,4.45,12.22,13.0000,20.0000
1982-06-14 22:00:00 UTC,2445135.416667,28.7317,-95.2428,0201,4.66,12.14,13.0000,21.0000
1982-06-14 22:30:00 UTC,2445135.437500,28.7317,-95.2428,0201,4.69,11.05,12.0000,23.0000
1982-06-14 23:00:00 UTC,2445135.458333,28.7317,-95.2428,0201,4.65,9.97,11.0000,25.0000
1982-06-14 23:30:00 UTC,2445135.479167,28.7317,-95.2428,0201,4.65,9.97,11.0000,25.0000
1982-06-15 00:00:00 UTC,2445135.500000,28.7317,-95.2428,0201,4.47,10.05,11.0000,24.0000
1982-06-15 00:30:00 UTC,2445135.520833,28.7317,-95.2428,0201,4.88,10.96,12.0000,24.0000
1982-06-15 01:00:00 UTC,2445135.541667,28.7317,-95.2428,0201,5.49,11.78,13.0000,25.0000
1982-06-15 01:30:00 UTC,2445135.562500,28.7317,-95.2428,0201,6.30,11.37,13.0000,29.0000
1982-06-15 02:00:00 UTC,2445135.583333,28.7317,-95.2428,0201,6.89,11.02,13.0000,32.0000
1982-06-15 02:30:00 UTC,2445135.604167,28.7317,-95.2428,0201,6.36,10.18,12.0000,32.0000
1982-06-15 03:00:00 UTC,2445135.625000,28.7317,-95.2428,0201,5.15,8.57,10.0000,31.0000
1982-06-15 03:30:00 UTC,2445135.645833,28.7317,-95.2428,0201,5.15,8.57,10.0000,31.0000
1982-06-15 04:00:00 UTC,2445135.666667,28.7317,-95.2428,0201,5.59,8.29,10.0000,34.0000
1982-06-15 04:30:00 UTC,2445135.687500,28.7317,-95.2428,0201,5.88,8.09,10.0000,36.0000
1982-06-15 05:00:00 UTC,2445135.708333,28.7317,-95.2428,0201,5.74,8.19,10.0000,35.0000
1982-06-15 05:30:00 UTC,2445135.729167,28.7317,-95.2428,0201,5.74,8.19,10.0000,35.0000
1982-06-15 06:00:00 UTC,2445135.750000,28.7317,-95.2428,0201,6.43,7.66,10.0000,40.0000
1982-06-15 06:30:00 UTC,2445135.770833,28.7317,-95.2428,0201,6.25,6.47,9.0000,44.0000
1982-06-15 07:00:00 UTC,2445135.791667,28.7317,-95.2428,0201,4.95,4.95,7.0000,45.0000
1982-06-15 07:30:00 UTC,2445135.812500,28.7317,-95.2428,0201,3.54,3.54,5.0000,45.0000
1982-06-15 08:00:00 UTC,2445135.833333,28.7317,-95.2428,0201,4.24,4.24,6.0000,45.0000
1982-06-15 08:30:00 UTC,2445135.854167,28.7317,-95.2428,0201,4.95,4.95,7.0000,45.0000
1982-06-15 09:00:00 UTC,2445135.875000,28.7317,-95.2428,0201,4.95,4.95,7.0000,45.0000
1982-06-15 09:30:00 UTC,2445135.895833,28.7317,-95.2428,0201,4.95,4.95,7.0000,45.0000
1982-06-15 10:00:00 UTC,2445135.916667,28.7317,-95.2428,0201,4.24,4.24,6.0000,45.0000
1982-06-15 10:30:00 UTC,2445135.937500,28.7317,-95.2428,0201,4.24,4.24,6.0000,45.0000
1982-06-15 11:00:00 UTC,2445135.958333,28.7317,-95.2428,0201,4.24,4.24,6.0000,45.0000
1982-06-15 11:30:00 UTC,2445135.979167,28.7317,-95.2428,0201,4.24,4.24,6.0000,45.0000
1982-06-15 12:00:00 UTC,2445136.000000,28.7317,-95.2428,0201,4.95,4.95,7.0000,45.0000
1982-06-15 12:30:00 UTC,2445136.020833,28.7317,-95.2428,0201,5.04,4.86,7.0000,46.0000
1982-06-15 13:00:00 UTC,2445136.041667,28.7317,-95.2428,0201,5.12,4.77,7.0000,47.0000
1982-06-15 13:30:00 UTC,2445136.062500,28.7317,-95.2428,0201,5.12,4.77,7.0000,47.0000
1982-06-15 14:00:00 UTC,2445136.083333,28.7317,-95.2428,0201,4.86,5.04,7.0000,44.0000
1982-06-15 14:30:00 UTC,2445136.104167,28.7317,-95.2428,0201,3.86,4.60,6.0000,40.0000
1982-06-15 15:00:00 UTC,2445136.125000,28.7317,-95.2428,0201,4.11,5.66,7.0000,36.0000
1982-06-15 15:30:00 UTC,2445136.145833,28.7317,-95.2428,0201,4.47,6.63,8.0000,34.0000
1982-06-15 16:00:00 UTC,2445136.166667,28.7317,-95.2428,0201,5.03,7.46,9.0000,34.0000
1982-06-15 16:30:00 UTC,2445136.187500,28.7317,-95.2428,0201,5.59,8.29,10.0000,34.0000
1982-06-15 17:00:00 UTC,2445136.208333,28.7317,-95.2428,0201,5.59,8.29,10.0000,34.0000
1982-06-15 17:30:00 UTC,2445136.229167,28.7317,-95.2428,0201,5.03,7.46,9.0000,34.0000
1982-06-15 18:00:00 UTC,2445136.250000,28.7317,-95.2428,0201,3.91,5.80,7.0000,34.0000
1982-06-15 18:30:00 UTC,2445136.270833,28.7317,-95.2428,0201,3.91,5.80,7.0000,34.0000
1982-06-15 19:00:00 UTC,2445136.291667,28.7317,-95.2428,0201,3.36,4.97,6.0000,34.0000
1982-06-15 19:30:00 UTC,2445136.312500,28.7317,-95.2428,0201,3.18,5.09,6.0000,32.0000
1982-06-15 20:00:00 UTC,2445136.333333,28.7317,-95.2428,0201,3.09,5.14,6.0000,31.0000
1982-06-15 20:30:00 UTC,2445136.354167,28.7317,-95.2428,0201,3.09,5.14,6.0000,31.0000
1982-06-15 21:00:00 UTC,2445136.375000,28.7317,-95.2428,0201,3.50,6.06,7.0000,30.0000
1982-06-15 21:30:00 UTC,2445136.395833,28.7317,-95.2428,0201,4.50,7.79,9.0000,30.0000
1982-06-15 22:00:00 UTC,2445136.416667,28.7317,-95.2428,0201,5.74,8.19,10.0000,35.0000
1982-06-15 22:30:00 UTC,2445136.437500,28.7317,-95.2428,0201,6.29,7.77,10.0000,39.0000
1982-06-15 23:00:00 UTC,2445136.458333,28.7317,-95.2428,0201,6.16,7.88,10.0000,38.0000
1982-06-15 23:30:00 UTC,2445136.479167,28.7317,-95.2428,0201,5.74,8.19,10.0000,35.0000
1982-06-16 00:00:00 UTC,2445136.500000,28.7317,-95.2428,0201,6.15,9.12,11.0000,34.0000
1982-06-16 00:30:00 UTC,2445136.520833,28.7317,-95.2428,0201,6.31,9.01,11.0000,35.0000
1982-06-16 01:00:00 UTC,2445136.541667,28.7317,-95.2428,0201,6.47,8.90,11.0000,36.0000
1982-06-16 01:30:00 UTC,2445136.562500,28.7317,-95.2428,0201,6.31,9.01,11.0000,35.0000
1982-06-16 02:00:00 UTC,2445136.583333,28.7317,-95.2428,0201,6.47,8.90,11.0000,36.0000
1982-06-16 02:30:00 UTC,2445136.604167,28.7317,-95.2428,0201,7.55,9.33,12.0000,39.0000
1982-06-16 03:00:00 UTC,2445136.625000,28.7317,-95.2428,0201,7.71,9.19,12.0000,40.0000
1982-06-16 03:30:00 UTC,2445136.645833,28.7317,-95.2428,0201,7.87,9.06,12.0000,41.0000
1982-06-16 04:00:00 UTC,2445136.666667,28.7317,-95.2428,0201,7.36,8.17,11.0000,42.0000
1982-06-16 04:30:00 UTC,2445136.687500,28.7317,-95.2428,0201,6.69,7.43,10.0000,42.0000
1982-06-16 05:00:00 UTC,2445136.708333,28.7317,-95.2428,0201,6.43,7.66,10.0000,40.0000
1982-06-16 05:30:00 UTC,2445136.729167,28.7317,-95.2428,0201,6.16,7.88,10.0000,38.0000
1982-06-16 06:00:00 UTC,2445136.750000,28.7317,-95.2428,0201,5.54,7.09,9.0000,38.0000
1982-06-16 06:30:00 UTC,2445136.770833,28.7317,-95.2428,0201,6.43,7.66,10.0000,40.0000
1982-06-16 07:00:00 UTC,2445136.791667,28.7317,-95.2428,0201,6.02,6.69,9.0000,42.0000
1982-06-16 07:30:00 UTC,2445136.812500,28.7317,-95.2428,0201,5.75,5.56,8.0000,46.0000
1982-06-16 08:00:00 UTC,2445136.833333,28.7317,-95.2428,0201,5.87,3.81,7.0000,57.0000
1982-06-16 08:30:00 UTC,2445136.854167,28.7317,-95.2428,0201,6.58,2.39,7.0000,70.0000
1982-06-16 09:00:00 UTC,2445136.875000,28.7317,-95.2428,0201,4.85,1.21,5.0000,76.0000
1982-06-16 09:30:00 UTC,2445136.895833,28.7317,-95.2428,0201,2.91,0.73,3.0000,76.0000
1982-06-16 10:00:00 UTC,2445136.916667,28.7317,-95.2428,0201,1.91,0.58,2.0000,73.0000
1982-06-16 10:30:00 UTC,2445136.937500,28.7317,-95.2428,0201,1.77,0.94,2.0000,62.0000
1982-06-16 11:00:00 UTC,2445136.958333,28.7317,-95.2428,0201,1.85,2.36,3.0000,38.0000
1982-06-16 11:30:00 UTC,2445136.979167,28.7317,-95.2428,0201,1.04,4.89,5.0000,12.0000
1982-06-16 12:00:00 UTC,2445137.000000,28.7317,-95.2428,0201,-0.28,8.00,8.0000,358.0000
1982-06-16 12:30:00 UTC,2445137.020833,28.7317,-95.2428,0201,-1.53,10.89,11.0000,352.0000
1982-06-16 13:00:00 UTC,2445137.041667,28.7317,-95.2428,0201,-1.88,11.85,12.0000,351.0000
1982-06-16 13:30:00 UTC,2445137.062500,28.7317,-95.2428,0201,-2.19,13.83,14.0000,351.0000
1982-06-16 14:00:00 UTC,2445137.083333,28.7317,-95.2428,0201,-2.50,15.80,16.0000,351.0000
1982-06-16 14:30:00 UTC,2445137.104167,28.7317,-95.2428,0201,-1.78,16.91,17.0000,354.0000
1982-06-16 15:00:00 UTC,2445137.125000,28.7317,-95.2428,0201,-0.33,19.00,19.0000,359.0000
1982-06-16 15:30:00 UTC,2445137.145833,28.7317,-95.2428,0201,1.05,19.97,20.0000,3.0000
1982-06-16 16:00:00 UTC,2445137.166667,28.7317,-95.2428,0201,1.05,19.97,20.0000,3.0000
1982-06-16 16:30:00 UTC,2445137.187500,28.7317,-95.2428,0201,1.33,18.95,19.0000,4.0000
1982-06-16 17:00:00 UTC,2445137.208333,28.7317,-95.2428,0201,1.66,18.93,19.0000,5.0000
1982-06-16 17:30:00 UTC,2445137.229167,28.7317,-95.2428,0201,1.26,17.96,18.0000,4.0000
1982-06-16 18:00:00 UTC,2445137.250000,28.7317,-95.2428,0201,1.39,15.94,16.0000,5.0000
1982-06-16 18:30:00 UTC,2445137.270833,28.7317,-95.2428,0201,1.57,14.92,15.0000,6.0000
1982-06-16 19:00:00 UTC,2445137.291667,28.7317,-95.2428,0201,1.22,13.95,14.0000,5.0000
1982-06-16 19:30:00 UTC,2445137.312500,28.7317,-95.2428,0201,1.22,13.95,14.0000,5.0000
1982-06-16 20:00:00 UTC,2445137.333333,28.7317,-95.2428,0201,1.58,12.90,13.0000,7.0000
1982-06-16 20:30:00 UTC,2445137.354167,28.7317,-95.2428,0201,1.36,12.93,13.0000,6.0000
1982-06-16 21:00:00 UTC,2445137.375000,28.7317,-95.2428,0201,1.67,11.88,12.0000,8.0000
1982-06-16 21:30:00 UTC,2445137.395833,28.7317,-95.2428,0201,2.10,10.80,11.0000,11.0000
1982-06-16 22:00:00 UTC,2445137.416667,28.7317,-95.2428,0201,2.47,10.72,11.0000,13.0000
1982-06-16 22:30:00 UTC,2445137.437500,28.7317,-95.2428,0201,3.58,10.40,11.0000,19.0000
1982-06-16 23:00:00 UTC,2445137.458333,28.7317,-95.2428,0201,4.82,9.89,11.0000,26.0000
1982-06-16 23:30:00 UTC,2445137.479167,28.7317,-95.2428,0201,6.18,10.29,12.0000,31.0000
1982-06-17 00:00:00 UTC,2445137.500000,28.7317,-95.2428,0201,7.62,11.74,14.0000,33.0000
1982-06-17 00:30:00 UTC,2445137.520833,28.7317,-95.2428,0201,8.48,13.57,16.0000,32.0000
1982-06-17 01:00:00 UTC,2445137.541667,28.7317,-95.2428,0201,8.48,13.57,16.0000,32.0000
1982-06-17 01:30:00 UTC,2445137.562500,28.7317,-95.2428,0201,8.17,12.58,15.0000,33.0000
1982-06-17 02:00:00 UTC,2445137.583333,28.7317,-95.2428,0201,7.95,12.72,15.0000,32.0000
1982-06-17 02:30:00 UTC,2445137.604167,28.7317,-95.2428,0201,7.04,13.24,15.0000,28.0000
1982-06-17 03:00:00 UTC,2445137.625000,28.7317,-95.2428,0201,7.04,13.24,15.0000,28.0000
1982-06-17 03:30:00 UTC,2445137.645833,28.7317,-95.2428,0201,8.71,13.42,16.0000,33.0000
1982-06-17 04:00:00 UTC,2445137.666667,28.7317,-95.2428,0201,10.47,13.40,17.0000,38.0000
1982-06-17 04:30:00 UTC,2445137.687500,28.7317,-95.2428,0201,10.07,12.43,16.0000,39.0000
1982-06-17 05:00:00 UTC,2445137.708333,28.7317,-95.2428,0201,8.60,12.29,15.0000,35.0000
1982-06-17 05:30:00 UTC,2445137.729167,28.7317,-95.2428,0201,6.54,10.06,12.0000,33.0000
1982-06-17 06:00:00 UTC,2445137.750000,28.7317,-95.2428,0201,5.45,8.39,10.0000,33.0000
1982-06-17 06:30:00 UTC,2445137.770833,28.7317,-95.2428,0201,4.70,6.47,8.0000,36.0000
1982-06-17 07:00:00 UTC,2445137.791667,28.7317,-95.2428,0201,4.02,5.73,7.0000,35.0000
1982-06-17 07:30:00 UTC,2445137.812500,28.7317,-95.2428,0201,4.24,6.78,8.0000,32.0000
1982-06-17 08:00:00 UTC,2445137.833333,28.7317,-95.2428,0201,5.03,7.46,9.0000,34.0000
1982-06-17 08:30:00 UTC,2445137.854167,28.7317,-95.2428,0201,4.00,6.93,8.0000,30.0000
1982-06-17 09:00:00 UTC,2445137.875000,28.7317,-95.2428,0201,2.85,6.39,7.0000,24.0000
1982-06-17 09:30:00 UTC,2445137.895833,28.7317,-95.2428,0201,2.82,5.30,6.0000,28.0000
1982-06-17 10:00:00 UTC,2445137.916667,28.7317,-95.2428,0201,2.82,5.30,6.0000,28.0000
1982-06-17 10:30:00 UTC,2445137.937500,28.7317,-95.2428,0201,1.65,5.77,6.0000,16.0000
1982-06-17 11:00:00 UTC,2445137.958333,28.7317,-95.2428,0201,2.07,7.73,8.0000,15.0000
1982-06-17 11:30:00 UTC,2445137.979167,28.7317,-95.2428,0201,3.13,7.36,8.0000,23.0000
1982-06-17 12:00:00 UTC,2445138.000000,28.7317,-95.2428,0201,3.18,5.09,6.0000,32.0000
1982-06-17 12:30:00 UTC,2445138.020833,28.7317,-95.2428,0201,2.72,5.35,6.0000,27.0000
1982-06-17 13:00:00 UTC,2445138.041667,28.7317,-95.2428,0201,1.93,6.73,7.0000,16.0000
1982-06-17 13:30:00 UTC,2445138.062500,28.7317,-95.2428,0201,1.66,7.83,8.0000,12.0000
1982-06-17 14:00:00 UTC,2445138.083333,28.7317,-95.2428,0201,0.97,6.93,7.0000,8.0000
1982-06-17 14:30:00 UTC,2445138.104167,28.7317,-95.2428,0201,0.49,6.98,7.0000,4.0000
1982-06-17 15:00:00 UTC,2445138.125000,28.7317,-95.2428,0201,1.14,5.89,6.0000,11.0000
1982-06-17 15:30:00 UTC,2445138.145833,28.7317,-95.2428,0201,2.34,5.52,6.0000,23.0000
1982-06-17 16:00:00 UTC,2445138.166667,28.7317,-95.2428,0201,2.54,5.44,6.0000,25.0000
1982-06-17 16:30:00 UTC,2445138.187500,28.7317,-95.2428,0201,2.82,5.30,6.0000,28.0000
1982-06-17 17:00:00 UTC,2445138.208333,28.7317,-95.2428,0201,3.36,4.97,6.0000,34.0000
1982-06-17 17:30:00 UTC,2445138.229167,28.7317,-95.2428,0201,2.87,4.10,5.0000,35.0000
1982-06-17 18:00:00 UTC,2445138.250000,28.7317,-95.2428,0201,2.57,3.06,4.0000,40.0000
1982-06-17 18:30:00 UTC,2445138.270833,28.7317,-95.2428,0201,1.71,1.03,2.0000,59.0000
1982-06-17 19:00:00 UTC,2445138.291667,28.7317,-95.2428,0201,0.98,0.17,1.0000,80.0000
1982-06-17 19:30:00 UTC,2445138.312500,28.7317,-95.2428,0201,0.73,-0.68,1.0000,133.0000
1982-06-17 20:00:00 UTC,2445138.333333,28.7317,-95.2428,0201,0.78,-2.90,3.0000,165.0000
1982-06-17 20:30:00 UTC,2445138.354167,28.7317,-95.2428,0201,0.52,-4.97,5.0000,174.0000
1982-06-17 21:00:00 UTC,2445138.375000,28.7317,-95.2428,0201,-0.14,-4.00,4.0000,182.0000
1982-06-17 21:30:00 UTC,2445138.395833,28.7317,-95.2428,0201,-0.26,-2.99,3.0000,185.0000
1982-06-17 22:00:00 UTC,2445138.416667,28.7317,-95.2428,0201,-0.14,-4.00,4.0000,182.0000
1982-06-17 22:30:00 UTC,2445138.437500,28.7317,-95.2428,0201,-0.84,-5.94,6.0000,188.0000
1982-06-17 23:00:00 UTC,2445138.458333,28.7317,-95.2428,0201,-2.96,-6.34,7.0000,205.0000
1982-06-17 23:30:00 UTC,2445138.479167,28.7317,-95.2428,0201,-4.68,-5.20,7.0000,222.0000
1982-06-18 00:00:00 UTC,2445138.500000,28.7317,-95.2428,0201,-4.77,-5.12,7.0000,223.0000
1982-06-18 00:30:00 UTC,2445138.520833,28.7317,-95.2428,0201,-4.31,-5.52,7.0000,218.0000
1982-06-18 01:00:00 UTC,2445138.541667,28.7317,-95.2428,0201,-5.35,-5.95,8.0000,222.0000
1982-06-18 01:30:00 UTC,2445138.562500,28.7317,-95.2428,0201,-5.95,-5.35,8.0000,228.0000
1982-06-18 02:00:00 UTC,2445138.583333,28.7317,-95.2428,0201,-6.30,-4.93,8.0000,232.0000
1982-06-18 02:30:00 UTC,2445138.604167,28.7317,-95.2428,0201,-6.55,-4.59,8.0000,235.0000
1982-06-18 03:00:00 UTC,2445138.625000,28.7317,-95.2428,0201,-8.75,-4.85,10.0000,241.0000
1982-06-18 03:30:00 UTC,2445138.645833,28.7317,-95.2428,0201,-9.27,-3.75,10.0000,248.0000
1982-06-18 04:00:00 UTC,2445138.666667,28.7317,-95.2428,0201,-9.51,-3.09,10.0000,252.0000
1982-06-18 04:30:00 UTC,2445138.687500,28.7317,-95.2428,0201,-8.61,-2.63,9.0000,253.0000
1982-06-18 05:00:00 UTC,2445138.708333,28.7317,-95.2428,0201,-7.83,-1.66,8.0000,258.0000
1982-06-18 05:30:00 UTC,2445138.729167,28.7317,-95.2428,0201,-7.96,-0.84,8.0000,264.0000
1982-06-18 06:00:00 UTC,2445138.750000,28.7317,-95.2428,0201,-7.00,-0.24,7.0000,268.0000
1982-06-18 06:30:00 UTC,2445138.770833,28.7317,-95.2428,0201,-6.95,-0.85,7.0000,263.0000
1982-06-18 07:00:00 UTC,2445138.791667,28.7317,-95.2428,0201,-7.79,-1.80,8.0000,257.0000
1982-06-18 07:30:00 UTC,2445138.812500,28.7317,-95.2428,0201,-8.77,-2.02,9.0000,257.0000
1982-06-18 08:00:00 UTC,2445138.833333,28.7317,-95.2428,0201,-9.70,-2.42,10.0000,256.0000
1982-06-18 08:30:00 UTC,2445138.854167,28.7317,-95.2428,0201,-9.51,-3.09,10.0000,252.0000
1982-06-18 09:00:00 UTC,2445138.875000,28.7317,-95.2428,0201,-9.40,-3.42,10.0000,250.0000
1982-06-18 09:30:00 UTC,2445138.895833,28.7317,-95.2428,0201,-8.46,-3.08,9.0000,250.0000
1982-06-18 10:00:00 UTC,2445138.916667,28.7317,-95.2428,0201,-7.56,-2.60,8.0000,251.0000
1982-06-18 10:30:00 UTC,2445138.937500,28.7317,-95.2428,0201,-6.58,-2.39,7.0000,250.0000
1982-06-18 11:00:00 UTC,2445138.958333,28.7317,-95.2428,0201,-6.66,-2.16,7.0000,252.0000
1982-06-18 11:30:00 UTC,2445138.979167,28.7317,-95.2428,0201,-4.97,-0.52,5.0000,264.0000
1982-06-18 12:00:00 UTC,2445139.000000,28.7317,-95.2428,0201,-2.91,0.73,3.0000,284.0000
1982-06-18 12:30:00 UTC,2445139.020833,28.7317,-95.2428,0201,-1.75,0.97,2.0000,299.0000
1982-06-18 13:00:00 UTC,2445139.041667,28.7317,-95.2428,0201,-0.80,0.60,1.0000,307.0000
1982-06-18 13:30:00 UTC,2445139.062500,28.7317,-95.2428,0201,0.75,0.66,1.0000,49.0000
1982-06-18 14:00:00 UTC,2445139.083333,28.7317,-95.2428,0201,1.89,0.65,2.0000,71.0000
1982-06-18 14:30:00 UTC,2445139.104167,28.7317,-95.2428,0201,2.98,0.37,3.0000,83.0000
1982-06-18 15:00:00 UTC,2445139.125000,28.7317,-95.2428,0201,3.00,0.10,3.0000,88.0000
1982-06-18 15:30:00 UTC,2445139.145833,28.7317,-95.2428,0201,4.00,-0.14,4.0000,92.0000
1982-06-18 16:00:00 UTC,2445139.166667,28.7317,-95.2428,0201,3.80,-1.24,4.0000,108.0000
1982-06-18 16:30:00 UTC,2445139.187500,28.7317,-95.2428,0201,3.35,-2.18,4.0000,123.0000
1982-06-18 17:00:00 UTC,2445139.208333,28.7317,-95.2428,0201,3.19,-2.41,4.0000,127.0000
1982-06-18 17:30:00 UTC,2445139.229167,28.7317,-95.2428,0201,3.06,-2.57,4.0000,130.0000
1982-06-18 18:00:00 UTC,2445139.250000,28.7317,-95.2428,0201,3.08,-3.94,5.0000,142.0000
1982-06-18 18:30:00 UTC,2445139.270833,28.7317,-95.2428,0201,2.74,-6.44,7.0000,157.0000
1982-06-18 19:00:00 UTC,2445139.291667,28.7317,-95.2428,0201,1.41,-8.89,9.0000,171.0000
1982-06-18 19:30:00 UTC,2445139.312500,28.7317,-95.2428,0201,-1.39,-9.90,10.0000,188.0000
1982-06-18 20:00:00 UTC,2445139.333333,28.7317,-95.2428,0201,-4.88,-10.96,12.0000,204.0000
1982-06-18 20:30:00 UTC,2445139.354167,28.7317,-95.2428,0201,-7.95,-12.72,15.0000,212.0000
1982-06-18 21:00:00 UTC,2445139.375000,28.7317,-95.2428,0201,-9.18,-13.11,16.0000,215.0000
1982-06-18 21:30:00 UTC,2445139.395833,28.7317,-95.2428,0201,-9.18,-13.11,16.0000,215.0000
1982-06-18 22:00:00 UTC,2445139.416667,28.7317,-95.2428,0201,-9.63,-12.78,16.0000,217.0000
1982-06-18 22:30:00 UTC,2445139.437500,28.7317,-95.2428,0201,-9.63,-12.78,16.0000,217.0000
1982-06-18 23:00:00 UTC,2445139.458333,28.7317,-95.2428,0201,-9.18,-13.11,16.0000,215.0000
1982-06-18 23:30:00 UTC,2445139.479167,28.7317,-95.2428,0201,-8.95,-13.26,16.0000,214.0000
1982-06-19 00:00:00 UTC,2445139.500000,28.7317,-95.2428,0201,-8.39,-12.44,15.0000,214.0000
1982-06-19 00:30:00 UTC,2445139.520833,28.7317,-95.2428,0201,-8.39,-12.44,15.0000,214.0000
1982-06-19 01:00:00 UTC,2445139.541667,28.7317,-95.2428,0201,-8.03,-11.47,14.0000,215.0000
1982-06-19 01:30:00 UTC,2445139.562500,28.7317,-95.2428,0201,-7.39,-9.46,12.0000,218.0000
1982-06-19 02:00:00 UTC,2445139.583333,28.7317,-95.2428,0201,-5.74,-8.19,10.0000,215.0000
1982-06-19 02:30:00 UTC,2445139.604167,28.7317,-95.2428,0201,-4.09,-8.02,9.0000,207.0000
1982-06-19 03:00:00 UTC,2445139.625000,28.7317,-95.2428,0201,-3.80,-8.16,9.0000,205.0000
1982-06-19 03:30:00 UTC,2445139.645833,28.7317,-95.2428,0201,-4.69,-8.83,10.0000,208.0000
1982-06-19 04:00:00 UTC,2445139.666667,28.7317,-95.2428,0201,-5.15,-8.57,10.0000,211.0000
1982-06-19 04:30:00 UTC,2445139.687500,28.7317,-95.2428,0201,-5.67,-9.43,11.0000,211.0000
1982-06-19 05:00:00 UTC,2445139.708333,28.7317,-95.2428,0201,-6.18,-10.29,12.0000,211.0000
1982-06-19 05:30:00 UTC,2445139.729167,28.7317,-95.2428,0201,-6.36,-10.18,12.0000,212.0000
1982-06-19 06:00:00 UTC,2445139.750000,28.7317,-95.2428,0201,-7.39,-9.46,12.0000,218.0000
1982-06-19 06:30:00 UTC,2445139.770833,28.7317,-95.2428,0201,-8.63,-8.34,12.0000,226.0000
1982-06-19 07:00:00 UTC,2445139.791667,28.7317,-95.2428,0201,-9.51,-8.87,13.0000,227.0000
1982-06-19 07:30:00 UTC,2445139.812500,28.7317,-95.2428,0201,-9.55,-10.24,14.0000,223.0000
1982-06-19 08:00:00 UTC,2445139.833333,28.7317,-95.2428,0201,-9.84,-11.32,15.0000,221.0000
1982-06-19 08:30:00 UTC,2445139.854167,28.7317,-95.2428,0201,-10.91,-11.70,16.0000,223.0000
1982-06-19 09:00:00 UTC,2445139.875000,28.7317,-95.2428,0201,-11.81,-12.23,17.0000,224.0000
1982-06-19 09:30:00 UTC,2445139.895833,28.7317,-95.2428,0201,-12.73,-12.73,18.0000,225.0000
1982-06-19 10:00:00 UTC,2445139.916667,28.7317,-95.2428,0201,-12.73,-12.73,18.0000,225.0000
1982-06-19 10:30:00 UTC,2445139.937500,28.7317,-95.2428,0201,-13.38,-12.04,18.0000,228.0000
1982-06-19 11:00:00 UTC,2445139.958333,28.7317,-95.2428,0201,-12.63,-11.38,17.0000,228.0000
1982-06-19 11:30:00 UTC,2445139.979167,28.7317,-95.2428,0201,-10.61,-10.61,15.0000,225.0000
1982-06-19 12:00:00 UTC,2445140.000000,28.7317,-95.2428,0201,-9.55,-10.24,14.0000,223.0000
1982-06-19 12:30:00 UTC,2445140.020833,28.7317,-95.2428,0201,-9.03,-9.35,13.0000,224.0000
1982-06-19 13:00:00 UTC,2445140.041667,28.7317,-95.2428,0201,-7.64,-7.91,11.0000,224.0000
1982-06-19 13:30:00 UTC,2445140.062500,28.7317,-95.2428,0201,-6.69,-7.43,10.0000,222.0000
1982-06-19 14:00:00 UTC,2445140.083333,28.7317,-95.2428,0201,-6.14,-6.58,9.0000,223.0000
1982-06-19 14:30:00 UTC,2445140.104167,28.7317,-95.2428,0201,-5.85,-5.46,8.0000,227.0000
1982-06-19 15:00:00 UTC,2445140.125000,28.7317,-95.2428,0201,-5.28,-4.59,7.0000,229.0000
1982-06-19 15:30:00 UTC,2445140.145833,28.7317,-95.2428,0201,-4.24,-4.24,6.0000,225.0000
1982-06-19 16:00:00 UTC,2445140.166667,28.7317,-95.2428,0201,-2.87,-4.10,5.0000,215.0000
1982-06-19 16:30:00 UTC,2445140.187500,28.7317,-95.2428,0201,-2.72,-5.35,6.0000,207.0000
1982-06-19 17:00:00 UTC,2445140.208333,28.7317,-95.2428,0201,-3.18,-6.24,7.0000,207.0000
1982-06-19 17:30:00 UTC,2445140.229167,28.7317,-95.2428,0201,-3.51,-7.19,8.0000,206.0000
1982-06-19 18:00:00 UTC,2445140.250000,28.7317,-95.2428,0201,-3.37,-8.34,9.0000,202.0000
1982-06-19 18:30:00 UTC,2445140.270833,28.7317,-95.2428,0201,-3.58,-9.34,10.0000,201.0000
1982-06-19 19:00:00 UTC,2445140.291667,28.7317,-95.2428,0201,-4.88,-10.96,12.0000,204.0000
1982-06-19 19:30:00 UTC,2445140.312500,28.7317,-95.2428,0201,-6.50,-11.26,13.0000,210.0000
1982-06-19 20:00:00 UTC,2445140.333333,28.7317,-95.2428,0201,-8.43,-11.18,14.0000,217.0000
1982-06-19 20:30:00 UTC,2445140.354167,28.7317,-95.2428,0201,-10.42,-10.79,15.0000,224.0000
1982-06-19 21:00:00 UTC,2445140.375000,28.7317,-95.2428,0201,-12.08,-10.50,16.0000,229.0000
1982-06-19 21:30:00 UTC,2445140.395833,28.7317,-95.2428,0201,-14.18,-11.08,18.0000,232.0000
1982-06-19 22:00:00 UTC,2445140.416667,28.7317,-95.2428,0201,-14.18,-11.08,18.0000,232.0000
1982-06-19 22:30:00 UTC,2445140.437500,28.7317,-95.2428,0201,-14.77,-11.96,19.0000,231.0000
1982-06-19 23:00:00 UTC,2445140.458333,28.7317,-95.2428,0201,-13.99,-11.33,18.0000,231.0000
1982-06-19 23:30:00 UTC,2445140.479167,28.7317,-95.2428,0201,-13.58,-11.81,18.0000,229.0000
1982-06-20 00:00:00 UTC,2445140.500000,28.7317,-95.2428,0201,-12.23,-11.81,17.0000,226.0000
1982-06-20 00:30:00 UTC,2445140.520833,28.7317,-95.2428,0201,-10.71,-11.89,16.0000,222.0000
1982-06-20 01:00:00 UTC,2445140.541667,28.7317,-95.2428,0201,-7.82,-10.38,13.0000,217.0000
1982-06-20 01:30:00 UTC,2445140.562500,28.7317,-95.2428,0201,-5.15,-8.57,10.0000,211.0000
1982-06-20 02:00:00 UTC,2445140.583333,28.7317,-95.2428,0201,-3.13,-7.36,8.0000,203.0000
1982-06-20 02:30:00 UTC,2445140.604167,28.7317,-95.2428,0201,-2.47,-7.61,8.0000,198.0000
1982-06-20 03:00:00 UTC,2445140.625000,28.7317,-95.2428,0201,-1.81,-6.76,7.0000,195.0000
1982-06-20 03:30:00 UTC,2445140.645833,28.7317,-95.2428,0201,-1.14,-5.89,6.0000,191.0000
1982-06-20 04:00:00 UTC,2445140.666667,28.7317,-95.2428,0201,-0.94,-5.93,6.0000,189.0000
1982-06-20 04:30:00 UTC,2445140.687500,28.7317,-95.2428,0201,-0.61,-6.97,7.0000,185.0000
1982-06-20 05:00:00 UTC,2445140.708333,28.7317,-95.2428,0201,0.00,-7.00,7.0000,180.0000
1982-06-20 05:30:00 UTC,2445140.729167,28.7317,-95.2428,0201,-0.37,-6.99,7.0000,183.0000
1982-06-20 06:00:00 UTC,2445140.750000,28.7317,-95.2428,0201,-1.22,-6.89,7.0000,190.0000
1982-06-20 06:30:00 UTC,2445140.770833,28.7317,-95.2428,0201,-2.07,-7.73,8.0000,195.0000
1982-06-20 07:00:00 UTC,2445140.791667,28.7317,-95.2428,0201,-2.93,-8.51,9.0000,199.0000
1982-06-20 07:30:00 UTC,2445140.812500,28.7317,-95.2428,0201,-4.30,-10.13,11.0000,203.0000
1982-06-20 08:00:00 UTC,2445140.833333,28.7317,-95.2428,0201,-5.26,-10.79,12.0000,206.0000
1982-06-20 08:30:00 UTC,2445140.854167,28.7317,-95.2428,0201,-6.79,-12.24,14.0000,209.0000